Merida, Mexico

9:38 PM CDT on June 22, 2017 (GMT -0500)
Lic Manuel Crecencio Rejon

Weather History for MMMD - October, 2012

Change the Weather History Date:

Sunday, October 7, 2012

  Actual Average Record
Temperature  
Mean Temperature 82 °F -  
Max Temperature 90 °F 91 °F 98 °F (2006)
Min Temperature 71 °F 73 °F 64 °F (2010)
Cooling Degree Days 16    
Growing Degree Days 32 (Base 50)    
Moisture  
Dew Point 73 °F    
Average Humidity 87    
Maximum Humidity 100    
Minimum Humidity 57    
Precipitation  
Precipitation 0.79 in - - ()
Sea Level Pressure  
Sea Level Pressure 29.88 in    
Wind  
Wind Speed 2 mph ()    
Max Wind Speed 12 mph    
Max Gust Speed -    
Visibility 4.4 miles    
Events Fog , Rain , Thunderstorm    
Averages and records for this station are not official NWS values.
T = Trace of Precipitation, MM = Missing Value Source: Averaged Metar Reports

Daily Weather History Graph

Daily Weather History Graph

Search for Another Location

Airport or City:

Trip Planner

Search our weather history database for the weather conditions in past years. The results will help you decide how hot, cold, wet, or windy it might be!

Date:

Astronomy

Oct. 07, 2012 Rise Set
Actual Time 6:51 AM CDT 6:40 PM CDT
Civil Twilight 6:29 AM CDT 7:02 PM CDT
Nautical Twilight 6:03 AM CDT 7:28 PM CDT
Astronomical Twilight 5:37 AM CDT 7:54 PM CDT
Moon No Moon Rise 12:59 PM CDT (10/7)
Length of Visible Light 12h 33m
Length of Day
11h 49m
Waning Gibbous, 56% of the Moon is Illuminated
Oct 7
Waning Gibbous
Oct 8
Last Quarter
Oct 15
New
Oct 21
First Quarter
Oct 29
Full

Hourly Weather History & Observations

Time (CDT) Temp. Heat Index Dew Point Humidity Pressure Visibility Wind Dir Wind Speed Gust Speed Precip Events Conditions
12:44 AM 75.2 °F - 73.4 °F 94% 30.00 in 5.0 mi Calm Calm - N/A   Mostly Cloudy
1:50 AM 75.2 °F - 73.4 °F 94% 29.85 in 5.0 mi Calm Calm - N/A   Mostly Cloudy
2:50 AM 73.4 °F - 71.6 °F 94% 29.84 in 6.0 mi Calm Calm - N/A   Mostly Cloudy
3:51 AM 73.4 °F - 71.6 °F 94% 29.81 in 6.0 mi Calm Calm - N/A   Mostly Cloudy
4:51 AM 73.4 °F - 71.6 °F 94% 29.85 in 6.0 mi Calm Calm - N/A   Scattered Clouds
5:44 AM 73.4 °F - 71.6 °F 94% 29.86 in 1.5 mi Calm Calm - N/A   Mostly Cloudy
6:47 AM 73.4 °F - 71.6 °F 94% 29.89 in 1.5 mi Calm Calm - N/A   Mostly Cloudy
6:50 AM 74 °F - 74 °F 98% 29.88 in 3 mi Calm Calm - -   Mist
7:07 AM 73.4 °F - 71.6 °F 94% 29.85 in 0.1 mi WNW 4.6 mph - N/A Fog Fog
7:47 AM 75.2 °F - 73.4 °F 94% 29.88 in 0.5 mi Calm Calm - N/A Fog Fog
8:11 AM 75.2 °F - 73.4 °F 94% 29.89 in 2.0 mi Calm Calm - N/A   Mostly Cloudy
8:50 AM 78.8 °F - 75.2 °F 89% 29.89 in 3.0 mi Calm Calm - N/A   Mostly Cloudy
9:48 AM 84.2 °F 92.3 °F 75.2 °F 74% 29.91 in 6.0 mi Calm Calm - N/A   Mostly Cloudy
9:50 AM 84 °F - 77 °F 74% 29.92 in 6 mi SSE 2.2 mph - -   Scattered Clouds
10:43 AM 84.2 °F 90.9 °F 73.4 °F 70% 29.92 in 7.0 mi SE 5.8 mph - N/A   Mostly Cloudy
11:42 AM 86.0 °F 91.8 °F 71.6 °F 62% 29.91 in 7.0 mi SE 5.8 mph - N/A   Mostly Cloudy
12:42 PM 87.8 °F 93.8 °F 71.6 °F 58% 29.90 in 7.0 mi Calm Calm - N/A   Mostly Cloudy
12:50 PM 90 °F - 77 °F 57% 29.90 in 6 mi SSW 4.5 mph - -   Partly Cloudy
1:43 PM 87.8 °F 95.6 °F 73.4 °F 62% 29.84 in 7.0 mi Calm Calm - N/A   Mostly Cloudy
2:47 PM 82.4 °F 87.2 °F 71.6 °F 70% 29.83 in 7.0 mi NNW 9.2 mph - N/A   Mostly Cloudy
3:50 PM 77 °F - 77 °F 100% 29.83 in 6 mi NNE 6.7 mph - - Rain Rain
3:51 PM 77.0 °F - 73.4 °F 89% 29.84 in 6.0 mi North 10.4 mph - N/A   Mostly Cloudy
4:17 PM 73.4 °F - 71.6 °F 94% 29.85 in 1.0 mi WNW 11.5 mph - N/A Rain , Thunderstorm Heavy Thunderstorms and Rain
4:27 PM 73.4 °F - 71.6 °F 94% 29.86 in 0.5 mi North 5.8 mph - N/A Rain , Thunderstorm Heavy Thunderstorms and Rain
4:47 PM 73.4 °F - 71.6 °F 94% 29.85 in 2.0 mi NNE 5.8 mph - N/A Rain Rain
5:23 PM 75.2 °F - 73.4 °F 94% 29.87 in 4.0 mi NNE 4.6 mph - N/A Rain Light Rain
5:53 PM 75.2 °F - 73.4 °F 94% 29.88 in 3.0 mi ENE 6.9 mph - N/A Rain Light Rain
6:49 PM 73.4 °F - 71.6 °F 94% 29.90 in 3.0 mi NE 6.9 mph - N/A Rain Light Rain
7:50 PM 73.4 °F - 71.6 °F 94% 29.90 in 5.0 mi East 10.4 mph - N/A   Overcast
8:46 PM 73.4 °F - 71.6 °F 94% 29.92 in 5.0 mi ESE 6.9 mph - N/A Rain Light Rain
9:50 PM 74 °F - 73 °F 94% 29.93 in 3 mi South 6.7 mph - - Rain Light Drizzle
9:50 PM 73.4 °F - 69.8 °F 88% 29.94 in 6.0 mi SSE 3.5 mph - N/A Rain Light Rain
10:45 PM 73.4 °F - 69.8 °F 88% 29.92 in 7.0 mi SE 5.8 mph - N/A   Overcast
11:47 PM 71.6 °F - 69.8 °F 94% 29.92 in 7.0 mi East 3.5 mph - N/A   Mostly Cloudy